Weather in Perevalsk

Ukraine / Luhansk Region     48˚26′09″N   38˚48′31″E
temp.,
°C
wind,
m/s
gust,
m/s
humid.,
%
clouds,
%
prec.,
mm/h
press.,
hPa
HPBL,
m
2 december, wed
wed223:00−3˚ese6128090 0.0 1030590
02:00−2˚ese6108394 0.0 1030560
05:00−3˚e61088100 0.0 1030437
08:00−3˚e71188100 0.1 1030433
11:00−2˚e61084100 0.0 1031480
14:00−1˚e7108394 0.0 1030614
17:00−2˚ese61181100 0.0 1030556
20:00−1˚ese61186100 0.0 1031519
3 december, thu
thu323:00−1˚ese61187100 0.0 1031527
02:00−1˚ese61088100 0.0 1031551
05:00−2˚ese61188100 0.0 1031457
08:00−2˚ese61186100 0.0 1031437
11:00ese61086100 0.1 1031599
14:00ese6993100 0.1 1031483
17:00ese61191100 0.3 1031480
20:00ese5991100 0.3 1030404
4 december, fri
fri423:00−1˚ese5890100 0.0 1030431
02:00−2˚ese5989100 0.0 1031433
05:00−2˚ese598999 0.0 1030418
08:00−1˚ese698998 0.0 1031407
11:00−1˚e6988100 0.0 1031422
14:00−1˚e61089100 0.0 1030425
17:00−1˚e71186100 0.0 1032529
20:00−2˚e61178100 0.0 1032523
5 december, sat
sat523:00−2˚e7117698 0.0 1032500
02:00−4˚e6117696 0.0 1033441
05:00−5˚e6117713 0.0 1032415
08:00−5˚e712727 0.0 1033431
11:00−3˚e711610 0.0 1033499
14:00−2˚e711580 0.0 1033541
17:00−5˚e714640 0.0 1034452
20:00−6˚e612640 0.0 1035422
6 december, sun
sun623:00−6˚e612650 0.0 1035392
02:00−7˚e612670 0.0 1035364
05:00−8˚e612690 0.0 1035353
08:00−8˚e712670 0.0 1036360
11:00−5˚e711540 0.0 1035418
14:00−4˚e711520 0.0 1035477
17:00−6˚e612720 0.0 1035429
20:00−7˚e611820 0.0 1036423